SL-16 DEB, 22620

Orbit data source: Space-Track

SL-16 DEB, 22620 is space debris in LEO originally from a launch on Fri, 26 Mar 1993 UTC launched from the Tyuratam Missile And Space Complex (TTMTR). Debris objects in space refer to the collection of defunct objects orbiting the Earth. Examples of debris include non-operational satellites, rocket bodies, and fragments generated from explosions, collisions, or faulty payload assembly.

Loading next visibility...
Identifier
22620, 1993-016AE
Orbit
LEO
Country
Flag of CISCIS
Related business
Manufacturer
Unknown
Mission
Spacecraft
Bus & Motor
Unknown
Mass
Unknown
Launch date (UTC)
1993-03-26 (33 years ago)
Launch vehicle
Unknown
Launch site
Tyuratam Missile And Space Complex (TTMTR)
Object type
Payload
Rocket body
Debris
Shape & HBR
Unknown shape, 0.3 m
Radar Cross Section
Medium (>0.1 m² and <1 m²)

Expand to show TLE details & history
Last TLE update: 6 hours ago

TLE from 6 hours ago
0 SL-16 DEB
1 22620U 93016AE  26035.33358549  .00000020  00000-0  53379-4 0  9990
2 22620  71.0058 101.0380 0132762  42.2499  39.8066 13.84116605659152
Epoch: 2026-02-04T08:00Z
TLE epoch observation values (Epoch: 2026-02-04T08:00:21.786Z)
Latitude
69.9111°
Longitude
-84.12868°
Altitude
886.664 km
Speed
7.453 km/s
True Right ascension
11h 21m 51s
True Declination
69° 48' 07"
Sunlit
Object was in full shadow at epoch
Visualization orbit readout
Latitude
Unknown
Longitude
Unknown
Altitude
Unknown
Speed
Unknown
Apparent Right ascension
Unknown
Apparent Declination
Unknown
Sunlit
N/A
Visualization observer readout
Local Sidereal Time
15:37:14
Azimuth
Unknown
Elevation
Unknown
Doppler factor
Unknown
Orbital elements
Apogee altitude
1,044.53 km
Perigee altitude
850.022 km
Semi-major axis
7,325.413 km
Eccentricity
0.01328
Inclination
71.0058°
RAAN
101.038°
Arg. of periapsis
42.2499°
True anomaly
40.79308°
Mean anomaly
39.8066°
Eccentric anomaly
40.29858°
Mean motion
3.46174 °/min
Orbital period
103.99 mins
BSTAR
0.000053379
Loading maneuver chart data...
Computing Atmospheric mass density...
Loading historical data...
Loading historical data...
Loading historical data...
Loading historical data...
Loading historical data...
Loading historical data...
Loading historical data...

Documentation

Showing up to 5 results
|